User: anonymous   Login
Location: Dover
(39.1580°N, 75.5250°W)
Time: 05:30:58
(UTC-04:00)
Language:

SeaSat 1 - Orbit

View from above orbital plane
View from above orbital plane
View from above satellite
View from above satellite

Ground track
Ground track

The orbit data is extracted from the following two-line orbital elements,

1 10967U 78064A   18115.90404088 -.00000016 +00000-0 +35541-4 0  9997
2 10967 108.0109 233.0535 0001562 284.3140 075.7831 14.43707564091508
Epoch (UTC): 25 April 2018 21:41:49
Eccentricity: 0.0001562
inclination: 108.0109°
perigee height: 745 km
apogee height: 747 km
right ascension of ascending node: 233.0535°
argument of perigee: 284.3140°
revolutions per day: 14.43707564
mean anomaly at epoch: 75.7831°
orbit number at epoch: 9150

The dashed part of the orbit path shows where the satellite is in the earth's shadow,  

DLR